DateTimeUTC,F1_A11,F1_S11,BsB_S11,BsG_S11,BsR_S11,BbsB_S11,BbsG_S11,BbsR_S11,BaB_A11,BaG_A11,BaR_A11,Tu_S11,T_S11,Uu_S11,U_S11,P_S11,T1_A11
2021-03-12T03:00:00Z,00000200,21000000,,,,,,,-000.35,0000.02,-000.41,17.0,24.5,,00.0,0637.2,31.0
2021-03-12T03:01:00Z,00000200,21000000,,,,,,,-000.06,-000.59,0000.07,17.1,24.5,,00.0,0637.2,31.0
2021-03-12T03:02:00Z,00000200,21000000,,,,,,,-000.12,-000.08,0000.04,17.1,24.6,,00.0,0637.1,30.9
2021-03-12T03:03:00Z,00000200,61000000,,,,,,,0000.38,0000.30,0000.21,17.1,24.6,,00.0,0637.1,30.9
2021-03-12T03:04:00Z,00000200,41000000,0001.31,0001.14,0000.72,0000.02,0000.37,0000.02,0000.41,0000.53,0000.22,17.2,24.4,,00.0,0638.0,30.9
2021-03-12T03:05:00Z,00000200,01000000,0001.59,0001.05,0000.62,-000.26,0000.03,0000.14,0000.45,0000.54,0000.23,17.2,24.3,,00.0,0638.0,30.9
2021-03-12T03:06:00Z,00000200,01000000,0001.80,0000.90,0000.60,-000.30,0000.21,0000.22,0000.64,0000.32,0000.46,17.1,24.3,,00.0,0638.0,30.9
2021-03-12T03:07:00Z,00000200,01000000,0001.31,0000.91,0000.69,0000.06,-000.02,0000.40,-000.02,0000.14,0000.10,17.1,24.2,,00.0,0638.1,30.9
2021-03-12T03:08:00Z,00000200,01000000,0001.07,0000.95,0000.53,-000.45,0000.05,0000.13,0000.22,0000.30,-000.01,17.0,24.2,,00.0,0638.1,30.9
2021-03-12T03:09:00Z,00000200,01000000,0001.51,0001.11,0000.59,0000.05,0000.13,0000.27,0000.67,0000.58,0000.40,17.0,24.2,,00.0,0638.1,30.9
2021-03-12T03:10:00Z,00000200,01000000,0001.71,0001.16,0000.62,0000.29,0000.20,0000.34,-000.01,-000.13,0000.13,16.9,24.2,,00.0,0638.0,30.9
2021-03-12T03:11:00Z,00000200,01000000,0001.06,0000.99,0000.79,-000.39,0000.27,0000.16,0000.67,0000.29,0000.38,16.9,24.1,,00.0,0638.0,30.9
2021-03-12T03:12:00Z,00000200,01000000,0001.19,0001.07,0000.55,0000.42,0000.00,0000.17,0000.28,0000.35,0000.29,16.9,24.1,,00.0,0638.0,30.9
2021-03-12T03:13:00Z,00000200,01000000,0001.49,0000.97,0000.48,0000.11,0000.21,0000.41,0000.36,0000.40,0000.17,16.8,24.1,,00.0,0638.0,30.9
2021-03-12T03:14:00Z,00000200,01000000,0001.13,0001.05,0000.72,0000.12,0000.25,0000.28,0000.86,0000.49,0000.54,16.9,24.1,,00.0,0638.0,30.9
2021-03-12T03:15:00Z,00000200,01000000,0001.43,0001.03,0000.62,0000.19,0000.32,0000.33,0000.38,0000.77,0000.44,17.0,24.1,,00.0,0638.0,30.9
2021-03-12T03:16:00Z,00000200,01000000,0001.51,0001.10,0000.62,0000.23,0000.21,0000.21,0000.31,0000.41,0000.34,17.0,24.1,,00.0,0638.0,30.9
2021-03-12T03:17:00Z,00000200,01000000,0001.50,0001.03,0000.52,-000.12,0000.46,0000.10,0000.63,0000.06,0000.28,17.1,24.2,,00.0,0638.0,31.0
2021-03-12T03:18:00Z,00000200,01000000,0001.17,0001.14,0000.51,-000.25,0000.19,0000.13,0000.33,0000.76,0000.42,17.2,24.2,,00.0,0638.0,30.9
2021-03-12T03:19:00Z,00000200,01000000,0001.70,0000.89,0000.71,-000.39,-000.05,0000.40,0000.23,0000.18,0000.18,17.3,24.2,,00.0,0638.1,31.0
2021-03-12T03:20:00Z,00000200,01000000,0001.47,0001.25,0000.53,0000.20,0000.14,0000.12,0000.53,0000.11,0000.29,17.3,24.3,,00.0,0638.1,31.0
2021-03-12T03:21:00Z,00000200,01000000,0002.17,0001.07,0000.76,-000.14,0000.35,0000.15,0000.71,0000.72,0000.17,17.4,24.3,,00.0,0638.0,31.0
2021-03-12T03:22:00Z,00000200,01000000,0001.65,0001.32,0000.39,-000.27,0000.15,0000.40,0000.76,0000.57,0000.50,17.3,24.3,,00.0,0638.0,31.0
2021-03-12T03:23:00Z,00000200,01000000,0001.61,0001.03,0000.96,-000.36,0000.01,0000.32,0000.03,0000.46,0000.27,17.3,24.3,,00.0,0638.0,30.9
2021-03-12T03:24:00Z,00000200,01000000,0001.51,0001.13,0000.35,0000.00,0000.24,0000.24,0000.69,0000.08,0000.24,17.2,24.3,,00.0,0638.0,30.9
2021-03-12T03:25:00Z,00000200,01000000,0001.24,0001.00,0000.53,-000.23,-000.04,0000.02,0000.38,0000.72,0000.49,17.2,24.3,,00.0,0638.0,30.9
2021-03-12T03:26:00Z,00000200,01000000,0001.36,0001.17,0000.57,0000.23,0000.23,0000.29,0000.41,0000.10,0000.10,17.1,24.2,,00.0,0638.0,30.9
2021-03-12T03:27:00Z,00000200,01000000,0001.15,0001.14,0000.67,-000.04,0000.15,0000.25,0000.29,0000.57,0000.45,17.1,24.2,,00.0,0638.0,30.9
2021-03-12T03:28:00Z,00000200,01000000,0001.26,0001.11,0000.47,0000.33,0000.21,0000.05,0000.76,0000.66,0000.31,17.1,24.2,,00.0,0638.0,30.9
2021-03-12T03:29:00Z,00000200,01000000,0001.16,0001.34,0000.60,0000.04,0000.17,0000.32,0000.27,0000.36,0000.12,17.1,24.2,,00.0,0638.0,30.9
2021-03-12T03:30:00Z,00000200,01000000,0001.87,0001.15,0000.79,-000.06,0000.31,0000.25,0001.21,0000.74,0000.70,17.2,24.2,,00.0,0638.0,30.9
2021-03-12T03:31:00Z,00000200,01000000,0001.28,0000.88,0000.82,-000.26,0000.11,0000.33,0000.34,0000.73,0000.66,17.3,24.2,,00.0,0638.0,30.9
2021-03-12T03:32:00Z,00000200,01000000,0001.87,0001.01,0000.46,-000.02,-000.00,0000.30,0000.42,0000.26,0000.39,17.3,24.3,,00.0,0638.0,30.9
2021-03-12T03:33:00Z,00000200,01000000,0001.26,0001.30,0000.66,0000.52,0000.06,0000.34,0000.31,0000.22,0000.21,17.3,24.3,,00.0,0638.1,30.9
2021-03-12T03:34:00Z,00000200,01000000,0001.74,0001.34,0000.68,-000.22,0000.12,0000.26,0000.41,0000.38,0000.03,17.3,24.3,,00.0,0638.1,30.9
2021-03-12T03:35:00Z,00000200,01000000,0001.53,0001.35,0000.71,0000.14,0000.00,0000.50,0000.72,0000.70,0000.43,17.3,24.3,,00.0,0638.1,30.9
2021-03-12T03:36:00Z,00000200,01000000,0001.69,0000.98,0000.39,-000.22,0000.07,0000.21,0000.11,0000.15,0000.26,17.2,24.3,,00.0,0638.1,30.9
2021-03-12T03:37:00Z,00000200,01000000,0001.25,0001.16,0000.92,0000.05,-000.02,0000.24,0000.47,0000.65,0000.58,17.2,24.2,,00.0,0638.1,30.9
2021-03-12T03:38:00Z,00000200,01000000,0001.59,0000.97,0000.81,-000.20,-000.10,0000.52,0000.63,0000.29,-000.07,17.1,24.2,,00.0,0638.1,30.9
2021-03-12T03:39:00Z,00000200,01000000,0001.77,0001.16,0000.66,0000.04,0000.01,0000.02,0000.67,0000.72,0000.50,17.1,24.2,,00.0,0638.0,30.9
2021-03-12T03:40:00Z,00000200,01000000,0001.51,0001.28,0000.79,0000.09,0000.04,0000.37,0000.97,0000.50,0000.42,17.0,24.2,,00.0,0638.0,30.9
2021-03-12T03:41:00Z,00000200,01000000,0001.83,0001.22,0000.68,0000.02,0000.06,0000.57,0000.08,0000.62,0000.47,17.0,24.1,,00.0,0638.0,30.9
2021-03-12T03:42:00Z,00000200,01000000,0001.41,0000.95,0000.73,-000.02,0000.32,0000.28,0000.48,0000.29,0000.40,17.0,24.1,,00.0,0638.1,30.9
2021-03-12T03:43:00Z,00000200,01000000,0001.74,0000.96,0000.84,0000.08,0000.32,0000.23,0000.43,0000.59,0000.43,17.0,24.1,,00.0,0638.0,30.9
2021-03-12T03:44:00Z,00000200,01000000,0000.87,0001.32,0000.56,-000.08,0000.17,0000.25,0000.91,0000.66,0000.38,17.0,24.1,,00.0,0638.0,30.9
2021-03-12T03:45:00Z,00000200,01000000,0001.46,0001.12,0000.55,-000.22,0000.18,0000.32,0000.89,0000.74,0000.82,17.1,24.1,,00.0,0638.0,30.9
2021-03-12T03:46:00Z,00000200,01000000,0001.77,0001.18,0000.72,0000.29,-000.07,0000.25,0000.14,0000.22,0000.27,17.1,24.1,,00.0,0638.1,30.9
2021-03-12T03:47:00Z,00000200,01000000,0001.68,0001.09,0000.63,0000.23,0000.11,0000.28,0000.67,0000.20,0000.19,17.2,24.2,,00.0,0638.1,30.9
2021-03-12T03:48:00Z,00000200,01000000,0002.19,0001.06,0000.56,0000.41,0000.12,0000.22,0000.37,0000.72,0000.20,17.3,24.2,,00.0,0638.1,31.0
2021-03-12T03:49:00Z,00000200,01000000,0001.29,0001.16,0000.66,-000.21,0000.26,0000.39,0000.77,0000.38,0000.83,17.4,24.3,,00.0,0638.0,31.0
2021-03-12T03:50:00Z,00000200,01000000,0002.17,0001.26,0000.81,0000.22,0000.01,0000.34,0000.31,0000.84,-000.19,17.5,24.3,,00.0,0638.1,31.0
2021-03-12T03:51:00Z,00000200,01000000,0001.91,0001.45,0000.63,-000.26,0000.23,0000.10,0000.86,0000.20,0000.97,17.5,24.4,,00.0,0638.1,31.0
2021-03-12T03:52:00Z,00000200,01000000,0001.78,0000.82,0000.76,0000.01,0000.13,0000.32,0000.74,0000.81,0000.09,17.6,24.4,,00.0,0638.1,31.0
2021-03-12T03:53:00Z,00000200,01000000,0001.62,0001.08,0000.60,0000.23,0000.02,0000.11,0000.37,0000.60,0000.43,17.6,24.4,,00.0,0638.0,31.0
2021-03-12T03:54:00Z,00000200,01000000,0001.06,0001.07,0000.84,-000.53,0000.05,0000.50,0000.14,0000.30,0000.50,17.5,24.4,,00.0,0638.0,31.0
2021-03-12T03:55:00Z,00000200,01000000,0002.03,0000.71,0000.67,0000.14,0000.12,0000.46,0000.40,0000.10,0000.33,17.5,24.4,,00.0,0638.1,30.9
2021-03-12T03:56:00Z,00000200,01000000,0002.01,0001.15,0000.39,-000.34,0000.26,0000.10,0000.44,0000.30,-000.08,17.4,24.3,,00.0,0638.1,30.9
2021-03-12T03:57:00Z,00000200,41000000,,,,,,,0000.18,0000.66,-000.07,17.4,24.4,,00.0,0638.2,30.9
2021-03-12T03:58:00Z,00000200,61000000,,,,,,,0000.41,-000.33,0000.24,17.0,24.4,,00.0,0637.1,30.9
2021-03-12T03:59:00Z,00000200,21000000,,,,,,,-000.24,0000.31,-000.03,17.0,24.5,,00.0,0637.1,30.9
